Location: Daytona Beach
(29.2106°N, 81.0231°W)
Time: 22:10:27
(UTC-04:00)

X-37B - Pass Details

Date: 23 June 2021
Orbit: 383 x 392 km, 45.0° (Epoch: 01 July)

Event Time Altitude Azimuth Distance (km) Brightness Sun altitude
Exits shadow 04:32:09 18° 326° (NW) 1,034 2.8 -21.0°
Maximum altitude 04:34:14 46° 34° (NE) 528 1.6 -20.6°
Drops below altitude 10° 04:37:17 10° 110° (ESE) 1,401 3.7 -20.2°
Sets 04:39:23 0° 116° (ESE) 2,253 4.7 -19.8°
